Council Bluffs, IA

7:30 AM CST on November 17, 2019 (GMT -0600)
Council Bluffs Municipal

Weather History for KCBF - October, 2019

Change the Weather History Date:

Tuesday, October 22, 2019

  Actual Average Record
Temperature  
Mean Temperature 46 °F -  
Max Temperature 55 °F 60 °F 80 °F (2003)
Min Temperature 37 °F 41 °F 32 °F (1997)
Degree Days  
Heating Degree Days 19    
Moisture  
Dew Point 31 °F    
Average Humidity 59    
Maximum Humidity 87    
Minimum Humidity 30    
Precipitation  
Precipitation 0.00 in - - ()
Sea Level Pressure  
Sea Level Pressure 29.84 in    
Wind  
Wind Speed 16 mph ()    
Max Wind Speed 28 mph    
Max Gust Speed 39 mph    
Visibility 9.9 miles    
Events      
Averages and records for this station are not official NWS values.
T = Trace of Precipitation, MM = Missing Value Source: Averaged Metar Reports

Daily Weather History Graph

Daily Weather History Graph

Search for Another Location

Airport or City:

Astronomy

Oct. 22, 2019 Rise Set
Actual Time 7:42 AM CDT 6:31 PM CDT
Civil Twilight 7:14 AM CDT 7:00 PM CDT
Nautical Twilight 6:42 AM CDT 7:32 PM CDT
Astronomical Twilight 6:10 AM CDT 8:04 PM CDT
Moon 12:48 AM CDT (10/22) 3:46 PM CDT (10/22)
Length of Visible Light 11h 45m
Length of Day
10h 49m
Last Quarter, 37% of the Moon is Illuminated
Oct 22
Last Quarter
Oct 27
New
Nov 4
First Quarter
Nov 12
Full
Nov 19
Last Quarter

Hourly Weather History & Observations

Time (CDT) Temp. Windchill Dew Point Humidity Pressure Visibility Wind Dir Wind Speed Gust Speed Precip Events Conditions
12:15 AM 46.4 °F 38.1 °F 42.8 °F 87% 29.70 in 10.0 mi WNW 24.2 mph 35.7 mph N/A   Overcast
12:35 AM 46.4 °F 38.7 °F 41.0 °F 81% 29.71 in 10.0 mi WNW 20.7 mph 38.0 mph N/A   Overcast
12:55 AM 46.4 °F 38.5 °F 41.0 °F 81% 29.71 in 10.0 mi WNW 21.9 mph 28.8 mph N/A   Overcast
1:15 AM 46.4 °F 39.0 °F 41.0 °F 81% 29.72 in 10.0 mi WNW 19.6 mph 32.2 mph N/A   Overcast
1:35 AM 46.4 °F 38.3 °F 41.0 °F 81% 29.72 in 10.0 mi WNW 23.0 mph 36.8 mph N/A   Overcast
1:55 AM 44.6 °F 35.1 °F 39.2 °F 81% 29.72 in 10.0 mi NW 27.6 mph 39.1 mph N/A   Overcast
2:15 AM 44.6 °F 35.9 °F 39.2 °F 81% 29.73 in 10.0 mi WNW 23.0 mph 31.1 mph N/A   Overcast
2:35 AM 44.6 °F 36.9 °F 39.2 °F 81% 29.74 in 10.0 mi WNW 18.4 mph 31.1 mph N/A   Overcast
2:55 AM 44.6 °F 35.5 °F 39.2 °F 81% 29.75 in 10.0 mi WNW 25.3 mph 39.1 mph N/A   Overcast
3:15 AM 42.8 °F 33.5 °F 37.4 °F 81% 29.75 in 10.0 mi WNW 23.0 mph 35.7 mph N/A   Overcast
3:35 AM 42.8 °F 34.8 °F 37.4 °F 81% 29.76 in 10.0 mi WNW 17.3 mph 27.6 mph N/A   Scattered Clouds
3:55 AM 41.0 °F 31.9 °F 37.4 °F 87% 29.76 in 10.0 mi WNW 19.6 mph 26.5 mph N/A   Scattered Clouds
4:15 AM 41.0 °F 32.5 °F 37.4 °F 87% 29.76 in 10.0 mi WNW 17.3 mph 26.5 mph N/A   Partly Cloudy
4:35 AM 41.0 °F 32.8 °F 35.6 °F 81% 29.77 in 10.0 mi WNW 16.1 mph 26.5 mph N/A   Clear
4:55 AM 41.0 °F 32.5 °F 35.6 °F 81% 29.78 in 10.0 mi WNW 17.3 mph 26.5 mph N/A   Clear
5:15 AM 39.2 °F 30.8 °F 35.6 °F 87% 29.79 in 10.0 mi WNW 15.0 mph 27.6 mph N/A   Clear
5:35 AM 39.2 °F 29.6 °F 33.8 °F 81% 29.80 in 10.0 mi WNW 19.6 mph 26.5 mph N/A   Clear
5:55 AM 39.2 °F 29.3 °F 33.8 °F 81% 29.80 in 10.0 mi WNW 20.7 mph 27.6 mph N/A   Clear
6:15 AM 39.2 °F 29.3 °F 33.8 °F 81% 29.81 in 10.0 mi WNW 20.7 mph 28.8 mph N/A   Clear
6:35 AM 39.2 °F 30.5 °F 33.8 °F 81% 29.83 in 10.0 mi WNW 16.1 mph 25.3 mph N/A   Clear
6:55 AM 39.2 °F 30.2 °F 33.8 °F 81% 29.83 in 10.0 mi WNW 17.3 mph 26.5 mph N/A   Clear
7:15 AM 37.4 °F 28.2 °F 33.8 °F 87% 29.84 in 10.0 mi WNW 16.1 mph 21.9 mph N/A   Clear
7:35 AM 37.4 °F 28.5 °F 33.8 °F 87% 29.84 in 10.0 mi WNW 15.0 mph 23.0 mph N/A   Clear
7:55 AM 37.4 °F 29.3 °F 33.8 °F 87% 29.85 in 10.0 mi WNW 12.7 mph 23.0 mph N/A   Clear
8:15 AM 39.2 °F 30.8 °F 32.0 °F 75% 29.86 in 7.0 mi WNW 15.0 mph 24.2 mph N/A   Clear
8:35 AM 39.2 °F 30.5 °F 32.0 °F 75% 29.86 in 10.0 mi WNW 16.1 mph 25.3 mph N/A   Clear
8:55 AM 39.2 °F 30.5 °F 32.0 °F 75% 29.87 in 10.0 mi WNW 16.1 mph 24.2 mph N/A   Clear
9:15 AM 41.0 °F 33.9 °F 32.0 °F 70% 29.88 in 10.0 mi WNW 12.7 mph 27.6 mph N/A   Clear
9:35 AM 41.0 °F 32.5 °F 30.2 °F 65% 29.89 in 10.0 mi WNW 17.3 mph 27.6 mph N/A   Clear
9:55 AM 42.8 °F 34.5 °F 30.2 °F 61% 29.90 in 10.0 mi WNW 18.4 mph 26.5 mph N/A   Clear
10:15 AM 42.8 °F 35.4 °F 30.2 °F 61% 29.90 in 10.0 mi NW 15.0 mph 24.2 mph N/A   Clear
10:35 AM 44.6 °F 37.4 °F 28.4 °F 53% 29.90 in 10.0 mi WNW 16.1 mph 26.5 mph N/A   Clear
10:55 AM 46.4 °F 38.5 °F 26.6 °F 46% 29.90 in 10.0 mi WNW 21.9 mph - N/A   Clear
11:15 AM 46.4 °F 39.5 °F 26.6 °F 46% 29.90 in 10.0 mi NW 17.3 mph 25.3 mph N/A   Clear
11:35 AM 48.2 °F - 26.6 °F 43% 29.91 in 10.0 mi NW 21.9 mph 32.2 mph N/A   Clear
11:55 AM 48.2 °F - 24.8 °F 40% 29.91 in 10.0 mi WNW 16.1 mph 27.6 mph N/A   Clear
12:35 PM 50.0 °F - 24.8 °F 37% 29.90 in 10.0 mi NW 20.7 mph 29.9 mph N/A   Clear
12:55 PM 51.8 °F - 24.8 °F 35% 29.90 in 10.0 mi WNW 21.9 mph 32.2 mph N/A   Clear
1:15 PM 51.8 °F - 24.8 °F 35% 29.89 in 10.0 mi WNW 20.7 mph 27.6 mph N/A   Clear
1:35 PM 51.8 °F - 23.0 °F 33% 29.89 in 10.0 mi WNW 24.2 mph 33.4 mph N/A   Clear
1:55 PM 53.6 °F - 23.0 °F 30% 29.89 in 10.0 mi WNW 20.7 mph 39.1 mph N/A   Clear
2:15 PM 53.6 °F - 23.0 °F 30% 29.88 in 4.0 mi NW 21.9 mph 29.9 mph N/A   Haze
2:35 PM 53.6 °F - 24.8 °F 33% 29.88 in 10.0 mi WNW 20.7 mph 29.9 mph N/A   Clear
2:55 PM 53.6 °F - 24.8 °F 33% 29.88 in 10.0 mi WNW 24.2 mph 29.9 mph N/A   Clear
3:15 PM 53.6 °F - 24.8 °F 33% 29.88 in 10.0 mi WNW 21.9 mph 31.1 mph N/A   Partly Cloudy
3:35 PM 55.4 °F - 24.8 °F 31% 29.88 in 10.0 mi WNW 17.3 mph 26.5 mph N/A   Partly Cloudy
3:55 PM 55.4 °F - 26.6 °F 33% 29.88 in 10.0 mi WNW 13.8 mph 31.1 mph N/A   Clear
4:15 PM 55.4 °F - 26.6 °F 33% 29.88 in 10.0 mi West 13.8 mph 19.6 mph N/A   Clear
4:35 PM 53.6 °F - 24.8 °F 33% 29.87 in 10.0 mi WNW 16.1 mph 26.5 mph N/A   Clear
4:55 PM 53.6 °F - 26.6 °F 35% 29.87 in 10.0 mi West 10.4 mph 17.3 mph N/A   Partly Cloudy
5:15 PM 53.6 °F - 28.4 °F 38% 29.87 in 10.0 mi West 8.1 mph - N/A   Mostly Cloudy
5:35 PM 55.4 °F - 28.4 °F 36% 29.86 in 10.0 mi WNW 12.7 mph - N/A   Mostly Cloudy
5:55 PM 53.6 °F - 28.4 °F 38% 29.87 in 10.0 mi WNW 11.5 mph - N/A   Scattered Clouds
6:15 PM 53.6 °F - 26.6 °F 35% 29.86 in 10.0 mi West 11.5 mph - N/A   Mostly Cloudy
6:35 PM 51.8 °F - 28.4 °F 41% 29.86 in 10.0 mi West 6.9 mph - N/A   Scattered Clouds
6:55 PM 50.0 °F - 26.6 °F 40% 29.86 in 10.0 mi WSW 5.8 mph - N/A   Clear
7:15 PM 50.0 °F - 28.4 °F 43% 29.86 in 10.0 mi WSW 4.6 mph - N/A   Clear
7:35 PM 50.0 °F - 28.4 °F 43% 29.86 in 10.0 mi WSW 5.8 mph - N/A   Clear
7:55 PM 48.2 °F - 28.4 °F 46% 29.86 in 10.0 mi SW 4.6 mph - N/A   Clear
8:15 PM 48.2 °F - 30.2 °F 50% 29.86 in 10.0 mi SSW 5.8 mph - N/A   Clear
8:35 PM 46.4 °F 43.5 °F 30.2 °F 53% 29.86 in 10.0 mi South 5.8 mph - N/A   Clear
8:55 PM 48.2 °F - 30.2 °F 50% 29.86 in 10.0 mi SSW 5.8 mph - N/A   Clear
9:15 PM 48.2 °F - 32.0 °F 54% 29.85 in 10.0 mi SSW 5.8 mph - N/A   Clear
9:35 PM 48.2 °F - 32.0 °F 54% 29.85 in 10.0 mi SSW 6.9 mph - N/A   Clear
9:55 PM 46.4 °F 43.5 °F 32.0 °F 57% 29.85 in 10.0 mi SSW 5.8 mph - N/A   Clear
10:15 PM 46.4 °F 42.9 °F 33.8 °F 62% 29.85 in 10.0 mi South 6.9 mph - N/A   Clear
10:35 PM 46.4 °F 42.4 °F 33.8 °F 62% 29.85 in 10.0 mi SSW 8.1 mph - N/A   Clear
10:55 PM 46.4 °F 42.4 °F 32.0 °F 57% 29.84 in 10.0 mi SSW 8.1 mph - N/A   Clear
11:15 PM 46.4 °F 41.9 °F 32.0 °F 57% 29.84 in 10.0 mi SSW 9.2 mph - N/A   Clear
11:35 PM 46.4 °F 42.4 °F 32.0 °F 57% 29.83 in 10.0 mi SSW 8.1 mph - N/A   Scattered Clouds
11:55 PM 46.4 °F 41.9 °F 32.0 °F 57% 29.83 in 10.0 mi SSW 9.2 mph - N/A   Scattered Clouds